Regional Weather Roundup
Issued by NWS Wakefield, VA

Home | Current Version | Previous Version | Graphics & Text | Print | Product List | Glossary On
Versions: 1 2 3 4 5 6 7 8 9 10 11 12 13 14 15 16 17 18 19 20 21 22 23 24 25 26 27 28 29 30 31 32 33 34 35 36 37 38 39 40 41 42 43 44 45 46 47 48 49 50
000
ASUS41 KAKQ 021615
RWRAKQ

REGIONAL WEATHER ROUNDUP
NATIONAL WEATHER SERVICE WAKEFIELD VA
1200 PM EDT WED SEP 02 2015

Note: "fair" indicates few or no clouds below 12,000 feet with no
significant weather and/or obstructions to visibility. * = Denotes
station may not report precipitation (e.g., rain,snow,etc.),
thunder or fog.

VAZ042-051-052>054-056-021700-
NORTHERN VIRGINIA

CITY           SKY/WX    TMP DP  RH WIND       PRES   REMARKS
WASH NATIONAL  CLOUDY    88  66  48 N7        30.04F
DULLES         PTSUNNY   86  68  54 NW6       30.05F
FORT BELVOIR   PTSUNNY   88  68  51 NW3       30.04S
QUANTICO       CLOUDY    85  69  58 CALM      30.04F
FREDERICKSBRG* PTSUNNY   90  71  53 CALM      30.02F HX  95
STAFFORD*      CLOUDY    86  69  56 N6        30.08S
WARRENTON      PTSUNNY   87  71  58 N7        30.05S
CULPEPER*      CLOUDY    83  71  67 N6        30.06S
MANASSAS*      NOT AVBL
LEESBURG*      PTSUNNY   86  72  62 CALM      30.06S
WINCHESTER     MOSUNNY   90  64  43 NW7       30.06F
FRONT ROYAL*   FAIR      86  70  58 CALM      30.06F
LURAY*         FAIR      82  66  57 SE5       30.08F
$$

VAZ048-049-060>072-079>083-021700-
CENTRAL AND SOUTH CENTRAL VIRGINIA

CITY           SKY/WX    TMP DP  RH WIND       PRES   REMARKS
RICHMOND       CLOUDY    93  68  43 CALM      30.03F HX  97
CHESTERFIELD*  FAIR      91  64  40 SW6       30.04F
PETERSBURG*    MOSUNNY   92  74  56 W3        30.04F HX 102
HANOVER        PTSUNNY   88  71  57 CALM      30.05F
TAPPAHANNOCK*  PTSUNNY   89  66  46 CALM      30.04F
QUINTON*       FAIR      88  72  59 CALM      30.02F
CHARLOTTSVILLE CLOUDY    84  69  60 W3        30.07S
GORDONSVILLE*  FAIR      84  71  64 CALM      30.05F
ORANGE*        CLOUDY    84  70  61 W3        30.07F
LOUISA*        CLOUDY    86  70  58 NE3       30.05S
BUMPASS*       FAIR      85  71  63 CALM      30.05F
FARMVILLE*     MOSUNNY   91  64  40 N8        30.04F
CREWE*         FAIR     N/A N/A N/A CALM      30.05S
FORT PICKETT*  FAIR      90  68  49 SW3       30.05F
CHASE CITY*    FAIR      91  70  49 SW6       30.06F HX  97
CLARKSVILLE*   FAIR      88  70  55 W3        30.06F
SOUTH HILL*    SUNNY     87  73  62 SW6       30.11F HX  95
LAWRENCEVILLE* FAIR      90  70  51 SW3       30.05S HX  95
EMPORIA*       SUNNY     88  72  58 CALM      30.05F
$$

VAZ088>098-021700-
SOUTHEAST VIRGINIA

CITY           SKY/WX    TMP DP  RH WIND       PRES   REMARKS
NORFOLK        MOSUNNY   89  65  44 VRB5      30.03F
VIRGINIA BEACH PTSUNNY   94  69  44 VRB5      30.02F HX  99
NORFOLK NAVAL  PTSUNNY   89  68  49 VRB5      30.04F
WEST POINT*    MOSUNNY   91  67  44 SW7       30.04F
SALUDA*        FAIR      87  72  59 NW5       30.02F
NEWPORT NEWS   MOSUNNY   90  69  50 VRB6      30.03F
LANGLEY AFB    PTSUNNY   89  69  50 SW6       30.02F
FORT EUSTIS    MOSUNNY   90  69  50 NW6       30.01F
WILLIAMSBURG*  MOSUNNY   93  72  49 SW7       30.04F HX 100
HR EXEC AP*      N/A     90  72  55 SW3       30.05F HX  96
FRANKLIN*      MOSUNNY   90  70  51 SW5       30.04F HX  95
WAKEFIELD      SUNNY     92  68  45 SW5       30.03F HX  96
$$

VAZ020-022-025-037-045-021700-
WEST CENTRAL AND SOUTHWEST VIRGINIA

CITY           SKY/WX    TMP DP  RH WIND       PRES   REMARKS
STAUNTON*      MOSUNNY   85  67  54 CALM      30.12F
WAYNESBORO*    FAIR      83  68  59 CALM      30.13S
HOT SPRINGS VA MOSUNNY   75  64  68 NW6       30.26S
LYNCHBURG      MOSUNNY   88  65  46 N6        30.10F
DANVILLE       SUNNY     90  67  46 MISG      30.08F
SOUTH BOSTON*  FAIR      91  64  40 W7        30.06F
MARTINSVILLE   SUNNY     90  62  39 N3        30.13F
ROANOKE        MOSUNNY   86  65  49 VRB6      30.13F
BLACKSBURG     SUNNY     80  68  67 NW3       30.21F
DUBLIN*        CLOUDY    82  65  58 N5        30.20F
MARION*        MOSUNNY   81  65  57 W3        30.24S
HILLSVILLE*    SUNNY     78  64  61 NW3       30.21F
RICHLANDS*     FAIR      78  28  16 S3        30.23F
WISE*          MOSUNNY   81  61  50 NE6       30.24F
ABINGDON*      SUNNY     82  63  52 CALM      30.19F
$$

MDZ021>025-VAZ099-100-021700-
SOUTHERN MARYLAND AND THE DELMARVA PENINSULA

CITY           SKY/WX    TMP DP  RH WIND       PRES   REMARKS
PATUXENT RIVER CLOUDY    89  72  56 VRB3      30.02F HX  96
BAY BRIDGE APT   N/A     81  72  74 CALM      30.03S
LEONARDTOWN    NOT AVBL
DOVER          PTSUNNY   85  74  70 E5        30.01F
GEORGETOWN     PTSUNNY   86  67  52 N7        30.02F
EASTON         PTSUNNY   86  70  58 NE3       30.06F
CAMBRIDGE      MOSUNNY   86  68  54 CALM      30.02S
SALISBURY      PTSUNNY   86  68  54 NW5       30.02F
OCEAN CITY     PTSUNNY   84  73  69 SE6       30.02S
WALLOPS ISLAND MOSUNNY   87  73  62 W5        30.02F
ACCOMACK*        N/A    N/A N/A N/A W8        30.02F
$$

NCZ012>017-030>032-021700-
NORTH CENTRAL AND EASTERN NORTH CAROLINA

CITY           SKY/WX    TMP DP  RH WIND       PRES   REMARKS
ROANOKE RAPIDS FAIR      88  70  55 W3        30.05F
RALEIGH        PTSUNNY   89  71  55 CALM      30.08S HX  95
ELIZABETH CITY FAIR      87  71  58 N5        30.04F
AHOSKIE*       SUNNY     87  70  57 CALM      30.05F
EDENTON*       FAIR      85  71  62 CALM      30.05S
CURRITUCK*     FAIR      87  68  52 CALM      30.05S
KILL DEVIL HLS FAIR      87  71  57 NE5       30.04S
MANTEO         FAIR      83  72  69 NE5       30.05S
CAPE HATTERAS  SUNNY     84  73  69 NE7       30.06R
TARBORO*       FAIR      90  67  47 CALM      30.06F
GOLDSBORO      MOSUNNY   88  70  55 N5        30.05S
WASHINGTON     PTSUNNY   86  70  59 CALM      30.06S
GREENVILLE     PTSUNNY   88  72  58 CALM      30.07S
NEW BERN       PTSUNNY   87  70  56 CALM      30.07S
WILMINGTON     MOSUNNY   89  72  56 N5        30.07S HX  96
$$

VAZ048-021700-
ELSEWHERE

CITY           SKY/WX    TMP DP  RH WIND       PRES   REMARKS
HARRISBURG PA  SUNNY     87  63  44 NW12      30.03F
BALTIMORE      PTSUNNY   87  65  47 NW3       30.03F
ANNAPOLIS      PTSUNNY   83  72  69 NW5       30.02F HAZE
ANDREWS AFB    PTSUNNY   87  66  48 N7        30.03F
PHILADELPHIA   PTSUNNY   85  68  56 S6        30.01F
HENDERSON NC   MOSUNNY   88  64  45 CALM      30.07F
GREENSBORO     MOSUNNY   89  64  43 W7        30.10F
ROCKY MOUNT    MOSUNNY   90  68  48 MISG      30.06F
$$

VAZ100-021700-
MARINE

STATION/POSITION TIME  TEMP    WIND        PRES    WAVE   SWELL
                       AIR SEA DIR/SP/G            HT/PER HT/PER
                 (UTC) (F)     (DEG/KT/KT) (MB)    (FT/S) (FT/S)
BRANDYWINE LGT   1500   76 76   60/  3/  4 1017.1F
CAPE MAY NJ      1500   80 80  280/  3/  5 1016.4F
LEWES DE         1500   77 76  350/  1/  2 1016.7F
15NM E FENWICK I 1550   78 79  310/  4/  6 1016.6S   2/10   2/10
OCEAN-CITY-INLET 1500   81 77  180/  4/  5 1015.9S
GOOSES REEF MD   1600   81 81  360/  4/  6 1017.8F
COVE POINT MD    1500   78     350/  6/  6 1017.7R
SOLOMONS ISLAND  1500      81                N/A
BISHOPS HEAD MD  1500   80 80   CALM  /  3 1016.0S
PINEY POINT MD   1505          310/  5/  6   N/A
POTOMAC MD       1600   81 82  230/  2/  4 1015.7F   0
CAMBRIDGE MD     1500   81 80  340/  1/  2 1016.0S
LEWISETTA VA     1500   82 81   40/  3/  4 1016.5S
RAPPAHANNOCK LGT 1500          230/  3/  4 1017.5S
STINGRAY PT      1600   84 82  280/  2/  4 1017.2F   0
YORK RVR RNG VA  1500   82     280/  6/  7 1016.5F
YORKTOWN VA      1500   84 81  270/  7/  8 1016.6F
JAMESTOWN VA     1600   83 82  320/  4/  4   N/A
DOMINION TERM VA 1500   80     200/  1/  2 1017.1F
KIPTOPEKE VA     1500      80  260/  3/  4   N/A
CHES BAY BRIDGE  1500   80 79  240/  5/  6 1016.8S
CAPE HENRY VA    1500   83     300/  6/  7   N/A
CHESAPEAKE LGHT  1500   82     290/  3/  3 1018.1R
WILLOUBY STN VA  1500   81      CALM  /  2 1018.1F
CAPE HENRY BUOY  1528      80                N/A     1/ 7
1ST LANDING BUOY 1600      80              1016.5F   1/ 3
CAPE CHARLES BUO 1526      80                N/A     1/ 9   2/ 9
OFFSHORE WE BUOY 1511      80                N/A     2/ 7   2/ 7
64NM E OF VA BCH 1550   81 82   CALM  /  2 1016.9F   2/ 7   2/ 7
DUCK PIER NC     1500   79 78   50/  2/  3 1016.9R
44100 DUCK FRF   1524      81                N/A     1/13
44056 DUCK FRF   1511      81                N/A     1/14
OREGON INLET NC  1500   81 81   20/  5/  9 1017.5R
HATTERAS NC      1500   80 81  340/  5/  6 1017.5S
DIAMOND SHLS NC  1550   80 84  360/  6/  6 1017.9R   2/14   2/14
CAPE LOOKOUT NC  1600   84     190/  3/  5 1017.4F
$$


USA.gov is the U.S. government's official web portal to all federal, state and local government web resources and services.